CW0774 Weather Reports


time (UTC)temp
C
wind
direction
speed
KPH
gust
KPH
rain 1hr
cm
rain 24hr
cm
rain mn
cm
humidity
%
barometer
mb
20260505011408 11 227 1.6 9.7 0.00 0.00 0.00 76 1011.7
20260505010908 11 143 3.2 12.9 0.00 0.00 0.00 76 1011.7
20260505010408 11 219 3.2 12.9 0.00 0.00 0.00 75 1011.6
20260505004908 12 179 3.2 14.5 0.00 0.00 0.00 73 1011.4
20260505004408 12 169 1.6 12.9 0.00 0.00 0.00 73 1011.4
20260505003409 12 190 3.2 9.7 0.00 0.00 0.00 72 1011.2
20260505002908 12 181 0.0 9.7 0.00 0.00 0.00 71 1011.0
20260505002409 12 195 1.6 8.0 0.00 0.00 0.00 71 1011.0
20260505000908 13 224 0.0 8.0 0.00 0.00 0.00 70 1010.9
20260505000408 13 224 1.6 8.0 0.00 0.00 0.00 69 1010.8
20260504235909 13 200 0.0 0.0 0.00 0.00 0.00 68 1010.9
20260504235408 13 200 0.0 0.0 0.00 0.00 0.00 68 1010.8
20260504234908 13 200 0.0 0.0 0.00 0.00 0.00 67 1010.7
20260504234408 13 200 0.0 0.0 0.00 0.00 0.00 66 1010.6
20260504233908 14 200 0.0 0.0 0.00 0.00 0.00 66 1010.6
20260504233409 14 200 0.0 0.0 0.00 0.00 0.00 65 1010.5
20260504232909 14 200 0.0 0.0 0.00 0.00 0.00 64 1010.5
20260504231908 15 200 0.0 9.7 0.00 0.00 0.00 62 1010.2
20260504231408 15 270 1.6 4.8 0.00 0.00 0.00 61 1010.2
20260504230909 15 227 1.6 4.8 0.00 0.00 0.00 61 1010.2
20260504230409 15 157 0.0 0.0 0.00 0.00 0.00 60 1010.1
20260504225909 15 157 0.0 8.0 0.00 0.00 0.00 60 1010.1
20260504225409 16 157 0.0 8.0 0.00 0.00 0.00 60 1010.1
20260504224908 16 168 1.6 8.0 0.00 0.00 0.00 59 1009.9
20260504223908 16 277 0.0 11.3 0.00 0.00 0.00 58 1009.9
20260504223409 16 273 6.4 11.3 0.00 0.00 0.00 58 1009.9
20260504222908 16 236 1.6 11.3 0.00 0.00 0.00 58 1010.0
20260504222409 17 234 4.8 12.9 0.00 0.00 0.00 58 1009.9
20260504221910 17 250 8.0 12.9 0.00 0.00 0.00 58 1009.9
20260504221409 17 116 3.2 9.7 0.00 0.00 0.00 58 1009.9
20260504220909 17 229 1.6 11.3 0.00 0.00 0.00 58 1009.8
20260504220408 17 246 1.6 11.3 0.00 0.00 0.00 58 1009.9
20260504215909 17 224 0.0 8.0 0.00 0.00 0.00 58 1009.8
20260504215409 17 239 0.0 8.0 0.00 0.00 0.00 57 1009.8
20260504214909 17 224 1.6 9.7 0.00 0.00 0.00 56 1009.8
20260504214409 18 243 0.0 11.3 0.00 0.00 0.00 56 1009.8
20260504213908 18 189 0.0 12.9 0.00 0.00 0.00 56 1009.7
20260504213409 18 204 4.8 12.9 0.00 0.00 0.00 55 1009.7
20260504212909 18 232 1.6 11.3 0.00 0.00 0.00 57 1009.7
20260504212408 18 215 0.0 0.0 0.00 0.00 0.00 55 1009.6
20260504211908 18 215 0.0 0.0 0.00 0.00 0.00 55 1009.6
20260504211409 18 215 0.0 0.0 0.00 0.00 0.00 56 1009.6
20260504210908 18 215 0.0 0.0 0.00 0.00 0.00 54 1009.6
20260504210408 18 215 0.0 0.0 0.00 0.00 0.00 56 1009.7
20260504205409 18 215 0.0 9.7 0.00 0.00 0.00 55 1009.6
20260504204908 18 215 1.6 9.7 0.00 0.00 0.00 56 1009.6
20260504203908 18 202 3.2 11.3 0.00 0.00 0.00 56 1009.7
20260504203410 18 199 0.0 4.8 0.00 0.00 0.00 57 1009.8
20260504202908 17 188 1.6 4.8 0.00 0.00 0.00 58 1009.8
20260504202408 17 107 0.0 0.0 0.00 0.00 0.00 58 1009.9
20260504201909 17 107 0.0 0.0 0.00 0.00 0.00 58 1009.9
20260504201409 17 107 0.0 0.0 0.00 0.00 0.00 59 1010.1
20260504200908 17 107 0.0 3.2 0.00 0.00 0.00 59 1009.9
20260504195909 16 107 1.6 9.7 0.00 0.00 0.00 60 1009.9
20260504180407 15 125 1.6 9.7 0.00 0.00 0.00 61 1010.1
20260504175907 15 193 1.6 12.9 0.00 0.00 0.00 60 1010.1
20260504175407 15 179 1.6 12.9 0.00 0.00 0.00 59 1010.1
20260504174907 15 158 3.2 19.3 0.00 0.00 0.00 58 1010.1
20260504174407 15 185 9.7 19.3 0.00 0.00 0.00 56 1010.0
20260504173906 16 165 6.4 16.1 0.00 0.00 0.00 55 1010.0
20260504173406 17 201 8.0 16.1 0.00 0.00 0.00 53 1009.9
20260504172907 17 151 4.8 22.5 0.00 0.00 0.00 52 1009.8
20260504172406 17 206 6.4 22.5 0.00 0.00 0.00 51 1009.7
20260504171907 17 185 9.7 19.3 0.00 0.00 0.00 50 1009.7
20260504170907 18 143 6.4 20.9 0.00 0.00 0.00 50 1009.6
20260504170407 18 196 8.0 24.1 0.00 0.00 0.00 50 1009.7
20260504160407 16 188 1.6 16.1 0.00 0.00 0.00 56 1010.2
20260504150906 15 200 9.7 16.1 0.00 0.00 0.00 60 1011.1
20260504140906 12 129 4.8 12.9 0.00 0.00 0.00 68 1011.9
20260504140407 12 155 3.2 12.9 0.00 0.00 0.00 68 1011.9
20260504130406 10 47 3.2 16.1 0.00 0.00 0.00 72 1012.4
20260504035906 6 102 0.0 3.2 0.00 0.00 0.00 71 1012.1
20260504035406 6 102 0.0 3.2 0.00 0.00 0.00 71 1011.9
20260504034906 6 88 0.0 9.7 0.00 0.00 0.00 70 1011.9
20260504034407 6 88 1.6 9.7 0.00 0.00 0.00 70 1011.9
20260504033906 6 177 1.6 14.5 0.00 0.00 0.00 70 1011.9
20260504033407 6 1 0.0 14.5 0.00 0.00 0.00 69 1011.9